Regional Weather Roundup
Issued by NWS Lake Charles, LA

Home | Current Version | Previous Version | Text Only | Print | Product List | Glossary On
Versions: 1 2 3 4 5 6 7 8 9 10 11 12 13 14 15 16 17 18 19 20 21 22 23 24 25 26 27 28 29 30 31 32 33 34 35 36 37 38 39 40 41 42 43 44 45 46 47 48 49 50
000
ASUS44 KLCH 081510
RWRLCH
REGIONAL WEATHER ROUNDUP
NATIONAL WEATHER SERVICE LAKE CHARLES LA
900 AM CST MON FEB 08 2016

Note: "fair" indicates few or no clouds below 12,000 feet with no
significant weather and/or obstructions to visibility.


ACROSS SOUTHEAST TEXAS

CITY           SKY/WX    TMP DP  RH WIND       PRES   REMARKS
BEAUMONT       SUNNY     51  31  46 NW15G23   30.28R
BEAUMONT CITY  FAIR      50  32  49 NW13G22   30.30R
ORANGE         SUNNY     50  25  38 NW9G16    30.29S
JASPER         SUNNY     46  28  48 W8        30.29R
$$

ACROSS CENTRAL LOUISIANA

CITY           SKY/WX    TMP DP  RH WIND       PRES   REMARKS
LEESVILLE      SUNNY     49  25  40 NW15G23   30.20R
FULLERTON      FAIR      50  24  36 VRB5      30.18R
ALEXANDRIA INT SUNNY     50  26  39 W20G26    30.17R
ESLER FIELD    SUNNY     52  25  35 NW14G21   30.17R
DERIDDER         N/A     48  24  39 W12G20    30.25R
OAKDALE          N/A     49  32  51 W7        30.22R
OPELOUSAS      FAIR      48  33  55 NW10G18   30.20R
$$

ACROSS SOUTHWEST AND SOUTH CENTRAL LOUISIANA

CITY           SKY/WX    TMP DP  RH WIND       PRES   REMARKS
SULPHUR        SUNNY     51  32  48 MISG      30.27R
LAKE CHARLES   SUNNY     51  27  39 NW16G29   30.25R
CHENNAULT INT  SUNNY     48  30  49 NW13G20   30.25R
CAMERON PHI    SUNNY     52  34  50 NW13G22   30.30R
DEQUINCY       FAIR      47  33  56 NW9       30.26S
JENNINGS       FAIR      48  34  57 NW13      30.23R
LAFAYETTE      SUNNY     50  33  52 NW18G24   30.21R
NEW IBERIA     SUNNY     50  35  56 NW16G24   30.21R
ABBEVILLE      FAIR      50  35  56 NW14G21   30.22R
PATTERSON      SUNNY     52  36  54 NW13G18   30.19R
SALT POINT       N/A     53  40  61 NW10G21   30.19R
$$

SELECTED SITES ACROSS THE REGION

CITY           SKY/WX    TMP DP  RH WIND       PRES   REMARKS
HOUSTON BUSH   MOSUNNY   52  22  30 N13G23    30.34R
HOUSTON HOBBY  MOSUNNY   53  21  28 N20G26    30.34R
GALVESTON      SUNNY     53  29  39 N26G35    30.33R
COLLEGE STAT   SUNNY     49  21  33 NW15G21   30.37R
CONROE         SUNNY     50  19  29 N10G22    30.34R
HUNTSVILLE     SUNNY     49  23  36 NW8G18    30.33R
LUFKIN         SUNNY     48  22  35 NW10G18   30.29R
SHREVEPORT     SUNNY     49  16  26 NW28G39   30.20R
MONROE         SUNNY     48  21  34 NW25G36   30.12S
NATCHEZ MS     SUNNY     48  30  49 W15       30.12S
BATON ROUGE    SUNNY     51  33  50 NW14G23   30.16R
N.O. INTL ARPT MOSUNNY   55  37  50 W18       30.14R
SLIDELL        SUNNY     53  38  56 NW7       30.10R
$$

MARINE REPORTS

STATION/POSITION TIME  SKY/WX   TEMP    WIND        PRES    VSBY
                                AIR SEA DIR/SP/G
                 (UTC)          (F)     (DEG/KT/KT) (MB)    (MI)
BUOY 30 S HIGH I 1450            53 58  330/ 23/ 27 1025.6R
WVE H/P(F/S)=  3/ 4

SEA RIM ST PARK  1500            49     340/ 12/ 14 1026.4R
PORT ARTHUR      1400               56  320/ 10/ 12 1025.0R
SABINE PASS N    1400            50 56  320/ 13/ 18 1026.1R
TEXAS POINT      NOT AVBL
CALCASIEU PASS   1400            48 56  340/ 14/ 16 1023.2R
LK CHARLES BEACH 1400            47 54              1024.3R
MARSH ISLAND     1400            52     330/ 20/ 25   N/A
WVE H/P(F/S)=  1

FRESH WATER LOCK 1400            48 52  280/  9/ 12 1022.8R
AMERADA PASS     1400            52 50  280/ 14/ 18 1021.9R
$$



USA.gov is the U.S. government's official web portal to all federal, state and local government web resources and services.